Regional Weather Roundup
Issued by NWS

Home | Current Version | Previous Version | Graphics & Text | Print | Product List | Glossary On
Versions: 1 2 3 4 5 6 7 8 9 10 11 12 13 14 15 16 17 18 19 20 21 22 23 24 25 26 27 28 29 30 31 32 33 34 35 36 37 38 39 40 41 42 43 44 45 46 47 48 49 50
000
ASUS43 KLMK 271710
RWRKY
KENTUCKY REGIONAL WEATHER ROUNDUP
NATIONAL WEATHER SERVICE LOUISVILLE KY
100 PM EDT SAT MAY 27 2017

NOTE "FAIR" INDICATES FEW OR NO CLOUDS BELOW 12,000 FEET
WITH NO SIGNIFICANT WEATHER AND/OR OBSTRUCTIONS TO VISIBILITY.

KYZ001>023-026-027-061>063-070>075-271800-
WESTERN AND SOUTH CENTRAL KENTUCKY

CITY           SKY/WX    TMP DP  RH WIND       PRES   REMARKS
PADUCAH        CLOUDY    83  66  56 SW12      29.89R
HENDERSON      MOSUNNY   81  72  74 VRB3      29.89S
OWENSBORO      PTSUNNY   82  71  69 SW9       29.89S
HOPKINSVILLE   MOSUNNY   81  71  70 SW6       29.92S
BOWLING GREEN  PTSUNNY   81  71  71 SW15G22   29.93R
GLASGOW        SUNNY     80  68  66 S5        29.90F
$$

KYZ024-025-028>034-038-045-046-053-271800-
NORTH CENTRAL KENTUCKY

CITY           SKY/WX    TMP DP  RH WIND       PRES   REMARKS
LOUISVILLE/SDF MOSUNNY   80  70  71 S5        29.88F
LOUISVILLE/LOU MOSUNNY   80  71  74 W7        29.88F
FORT KNOX      MOSUNNY   79  70  73 S8        29.88S
$$

KYZ035>037-039>044-047>052-055>060-089>105-271800-
NORTHEAST KENTUCKY

CITY           SKY/WX    TMP DP  RH WIND       PRES   REMARKS
LEXINGTON      CLOUDY    78  68  71 W9        29.92F
COVINGTON      PTSUNNY   77  68  73 SW8       29.89S
FRANKFORT      PTSUNNY   79  68  69 S6        29.89F
$$

KYZ054-064>069-076>088-106>120-271800-
SOUTHEAST KENTUCKY

CITY           SKY/WX    TMP DP  RH WIND       PRES   REMARKS
JACKSON        CLOUDY    74  66  76 CALM      29.96S
LONDON         PTSUNNY   75  64  68 SW12      29.96F
SOMERSET       CLOUDY    73  64  73 SW5       29.96F
MIDDLESBORO    CLOUDY    77  66  68 S5        29.99F
MONTICELLO     CLOUDY    78  68  71 W15       29.97F
$$





USA.gov is the U.S. government's official web portal to all federal, state and local government web resources and services.